This is the latest recevied weather packets stored in our database for station/object SV9TNF-56. If no packets are shown the sender has not sent any weather packets the latest 10 day(s).
| Time | Temp. | Humidity | Pressure | Rain* | Wind** | Luminosity | Snow |
|---|---|---|---|---|---|---|---|
| 1788280701 | 25.56° C | 61% | 1010.8 hPa | 0 mm | 15.2 m/s, 85° | - | - |
| 1788280401 | 25.56° C | 61% | 1010.5 hPa | 0 mm | 25.48 m/s, 127° | - | - |
| 1788280101 | 25.56° C | 63% | 1010.5 hPa | 0 mm | 14.31 m/s, 144° | - | - |
| 1788279802 | 25.56° C | 63% | 1010.5 hPa | 0 mm | 16.09 m/s, 42° | - | - |
| 1788279501 | 25.56° C | 62% | 1010.5 hPa | 0 mm | 5.81 m/s, 147° | - | - |
| 1788279201 | 25.56° C | 63% | 1010.5 hPa | 0 mm | 3.13 m/s, 204° | - | - |
| 1788278901 | 25.56° C | 64% | 1010.5 hPa | 0 mm | 4.92 m/s, 296° | - | - |
| 1788278601 | 25.56° C | 62% | 1010.5 hPa | 0 mm | 8.05 m/s, 248° | - | - |
| 1788278301 | 25.56° C | 61% | 1010.5 hPa | 0 mm | 13.86 m/s, 132° | - | - |
| 1788278001 | 25.56° C | 60% | 1010.5 hPa | 0 mm | 8.05 m/s, 206° | - | - |
| 1788277701 | 25.56° C | 60% | 1010.5 hPa | 0 mm | 8.94 m/s, 84° | - | - |
| 1788277400 | 25.56° C | 63% | 1010.8 hPa | 0 mm | 23.25 m/s, 42° | - | - |
| 1788277100 | 25.56° C | 63% | 1010.8 hPa | 0 mm | 13.86 m/s, 102° | - | - |
| 1788276801 | 25.56° C | 63% | 1010.8 hPa | 0 mm | 16.99 m/s, 91° | - | - |
| 1788276500 | 25.56° C | 62% | 1010.8 hPa | 0 mm | 22.8 m/s, 109° | - | - |
| 1788276200 | 25.56° C | 61% | 1010.8 hPa | 0 mm | 25.48 m/s, 76° | - | - |
| 1788275900 | 25° C | 67% | 1010.8 hPa | 0 mm | 26.82 m/s, 59° | - | - |
| 1788275600 | 25.56° C | 69% | 1010.8 hPa | 0 mm | 12.96 m/s, 52° | - | - |
| 1788275300 | 25.56° C | 69% | 1010.8 hPa | 0 mm | 21.01 m/s, 61° | - | - |
| 1788275000 | 25.56° C | 68% | 1010.8 hPa | 0 mm | 15.2 m/s, 70° | - | - |
| 1788274700 | 25.56° C | 65% | 1010.5 hPa | 0 mm | 23.25 m/s, 122° | - | - |
| 1788274399 | 25.56° C | 62% | 1010.8 hPa | 0 mm | 14.75 m/s, 115° | - | - |
| 1788274100 | 25.56° C | 63% | 1010.5 hPa | 0 mm | 11.18 m/s, 156° | - | - |
| 1788273799 | 25.56° C | 64% | 1010.5 hPa | 0 mm | 22.8 m/s, 133° | - | - |
| 1788273499 | 25.56° C | 64% | 1010.5 hPa | 0 mm | 19.22 m/s, 130° | - | - |
* Rain latest hour (hover to see other rain measurements)
** Current wind speed in m/s (hover to see current wind gust speed)